Starlink 31827

operational
NORAD ID: 59727 Int'l Des: 2024-088 Owner: SPXS Country: US Constellation: starlink
LEOCIRCULAR

Über Starlink 31827

Beschreibung wird geladen...

Live-Position

3D-Globus wird geladen...

Nächste Überflüge

Höhenverlauf

Altitude vs Time

uPlot chart will show altitude changes over time

Zweizeiliger Elementsatz

1 59727U 24088V 25258.36028363 .00001353 00000-0 57809-4 0 9990
2 59727 53.1582 234.6352 0001501 95.1927 264.9245 15.30202583 76959
Epoch: 15. Sept. 2025 • Age: 25 hours

Aktueller Status

Höhe 489.1 km
Geschwindigkeit 7.62 km/s
Subsatellitenpunkt -39.63°S, 53.66°E
Startdatum 10. Mai 2024
Alter 1.3 years
Typ internet

Technische Details

Klassifizierung Payload
Masse 730.00 kg
Trockenmasse 700.00 kg
Gesamtmasse 730.00 kg
Länge 0.30 m
Durchmesser 4.10 m
Spannweite 29.00 m
Form Box + pan
Hersteller SPXS
Bus-Typ Starlink V2M
Phasenstatus In Orbit
Besitzer/Staat SPXS/US

Große Konstellationen

Loading constellations...